GW4725 Weather Reports


time (UTC)temp
F
wind
direction
speed
knots
gust
knots
rain 1hr
in
rain 24hr
in
rain mn
in
humidity
%
barometer
mb
20260504050451 36 263 0.0 0.0 0.00 0.00 0.00 90 1017.6
20260504045948 36 262 0.0 0.0 0.00 0.00 0.00 91 1017.5
20260504045443 36 257 0.0 0.0 0.00 0.00 0.00 90 1017.7
20260504044939 36 264 0.0 0.0 0.00 0.00 0.00 90 1017.4
20260504044437 36 259 0.0 0.0 0.00 0.00 0.00 90 1017.6
20260504043934 36 259 0.0 0.0 0.00 0.00 0.00 90 1017.6
20260504043431 37 259 0.0 0.0 0.00 0.00 0.00 89 1017.6
20260504042929 37 261 0.0 0.0 0.00 0.00 0.00 89 1017.5
20260504042425 37 249 0.0 0.0 0.00 0.00 0.00 89 1017.6
20260504041921 37 261 0.0 0.0 0.00 0.00 0.00 89 1017.5
20260504041418 37 243 0.0 0.0 0.00 0.00 0.00 89 1017.6
20260504040914 37 250 0.0 0.0 0.00 0.00 0.00 88 1017.4
20260504040412 37 250 0.0 0.0 0.00 0.00 0.00 88 1017.6
20260504035907 38 250 0.0 0.0 0.00 0.00 0.00 87 1017.7
20260504035405 38 275 0.0 0.0 0.00 0.00 0.00 87 1017.7
20260504034901 38 264 0.0 0.0 0.00 0.00 0.00 87 1017.5
20260504034359 38 263 0.0 0.0 0.00 0.00 0.00 86 1017.4
20260504033856 38 263 0.0 0.0 0.00 0.00 0.00 86 1017.5
20260504033354 38 268 0.0 0.0 0.00 0.00 0.00 85 1017.4
20260504032850 39 268 0.0 0.0 0.00 0.00 0.00 85 1017.3
20260504032347 39 268 0.0 0.0 0.00 0.00 0.00 84 1017.2
20260504031844 39 268 0.0 0.0 0.00 0.00 0.00 84 1017.3
20260504031341 40 268 0.0 0.0 0.00 0.00 0.00 83 1017.3
20260504030837 40 268 0.0 0.0 0.00 0.00 0.00 82 1017.3
20260504030335 40 265 0.0 0.0 0.00 0.00 0.00 82 1017.3
20260504025831 40 241 0.0 0.0 0.00 0.00 0.00 81 1017.4
20260504025328 40 241 0.0 0.0 0.00 0.00 0.00 81 1017.3
20260504024825 41 253 0.0 0.0 0.00 0.00 0.00 80 1017.3
20260504024321 41 265 0.0 0.0 0.00 0.00 0.00 80 1017.1
20260504023818 41 265 0.0 0.0 0.00 0.00 0.00 79 1017.1
20260504023315 41 246 0.0 0.0 0.00 0.00 0.00 78 1017.1
20260504022810 41 246 0.0 0.0 0.00 0.00 0.00 77 1017.0
20260504022307 42 248 0.0 0.0 0.00 0.00 0.00 77 1017.0
20260504021803 42 248 0.0 0.0 0.00 0.00 0.00 77 1017.0
20260504021302 42 298 0.0 0.0 0.00 0.00 0.00 78 1016.9
20260504020758 42 274 0.0 0.0 0.00 0.00 0.00 77 1016.8
20260504020255 42 256 0.0 0.0 0.00 0.00 0.00 76 1017.1
20260504015750 42 256 0.0 0.0 0.00 0.00 0.00 76 1016.9
20260504015247 43 266 0.0 0.0 0.00 0.00 0.00 75 1016.8
20260504014743 43 266 0.0 0.0 0.00 0.00 0.00 73 1016.8
20260504014240 43 267 0.0 0.0 0.00 0.00 0.00 73 1017.0
20260504013738 44 267 0.0 0.0 0.00 0.00 0.00 73 1016.9
20260504013235 44 267 0.0 0.0 0.00 0.00 0.00 72 1016.8
20260504012731 44 252 0.0 0.0 0.00 0.00 0.00 71 1016.5
20260504012229 45 252 0.0 0.0 0.00 0.00 0.00 71 1016.6
20260504011726 45 256 0.0 0.0 0.00 0.00 0.00 69 1016.7
20260504011223 45 256 0.0 0.0 0.00 0.00 0.00 68 1016.6
20260504010719 46 259 0.0 0.0 0.00 0.00 0.00 67 1016.4
20260504010215 46 259 0.0 0.0 0.00 0.00 0.00 66 1016.5
20260504005711 46 252 0.0 0.0 0.00 0.00 0.00 66 1016.5
20260504005209 47 248 0.0 0.0 0.00 0.00 0.00 64 1016.5
20260504004706 47 248 0.0 0.0 0.00 0.00 0.00 62 1016.3
20260504004203 48 250 0.0 0.0 0.00 0.00 0.00 62 1016.3
20260504003700 49 250 0.0 0.0 0.00 0.00 0.00 58 1016.5
20260504003156 49 239 0.0 0.0 0.00 0.00 0.00 58 1016.5
20260504002653 50 240 0.0 0.0 0.00 0.00 0.00 59 1016.4
20260504002150 51 239 0.0 0.0 0.00 0.00 0.00 54 1016.3
20260504001648 51 237 0.0 0.0 0.00 0.00 0.00 53 1016.4
20260504001144 53 258 0.0 0.0 0.00 0.00 0.00 49 1016.3
20260504000641 54 333 0.0 0.0 0.00 0.00 0.00 45 1016.3
20260504000139 55 269 0.0 0.0 0.00 0.00 0.00 45 1016.3
20260503235637 56 271 0.0 0.0 0.00 0.00 0.00 39 1016.3
20260503235133 57 279 0.0 0.0 0.00 0.00 0.00 39 1016.3
20260503234631 58 294 0.0 0.0 0.00 0.00 0.00 34 1016.0
20260503234129 59 274 0.0 0.0 0.00 0.00 0.00 33 1016.1
20260503233626 59 269 0.0 0.0 0.00 0.00 0.00 31 1016.1
20260503233121 60 286 0.0 0.0 0.00 0.00 0.00 31 1016.0
20260503232619 60 275 0.0 0.9 0.00 0.00 0.00 31 1015.9
20260503232116 60 327 0.0 3.5 0.00 0.00 0.00 30 1015.9
20260503231614 60 268 0.0 0.0 0.00 0.00 0.00 31 1016.0
20260503231110 60 313 0.9 2.6 0.00 0.00 0.00 30 1015.9
20260503230607 61 352 0.0 0.9 0.00 0.00 0.00 30 1016.0
20260503230104 61 271 3.5 7.8 0.00 0.00 0.00 29 1015.9
20260503225601 61 260 0.9 1.7 0.00 0.00 0.00 31 1015.9
20260503225056 61 263 0.0 1.7 0.00 0.00 0.00 30 1015.8
20260503224554 61 321 0.0 2.6 0.00 0.00 0.00 29 1015.9
20260503224052 62 254 0.0 5.2 0.00 0.00 0.00 31 1015.6
20260503223550 62 327 0.0 2.6 0.00 0.00 0.00 28 1015.8
20260503223045 63 265 0.9 5.2 0.00 0.00 0.00 29 1015.7
20260503222543 63 232 0.9 2.6 0.00 0.00 0.00 27 1015.8
20260503222041 64 284 0.0 3.5 0.00 0.00 0.00 28 1015.7
20260503221539 63 254 1.7 2.6 0.00 0.00 0.00 27 1015.9
20260503221036 64 283 0.9 2.6 0.00 0.00 0.00 27 1015.9
20260503220532 64 290 1.7 5.2 0.00 0.00 0.00 28 1016.0
20260503220029 64 208 0.0 2.6 0.00 0.00 0.00 28 1016.1
20260503215527 64 336 0.0 3.5 0.00 0.00 0.00 28 1016.0
20260503215023 64 284 1.7 6.1 0.00 0.00 0.00 29 1015.9
20260503214522 65 267 0.9 5.2 0.00 0.00 0.00 27 1015.9
20260503214018 64 281 0.9 5.2 0.00 0.00 0.00 28 1016.0
20260503213516 65 243 0.0 0.9 0.00 0.00 0.00 27 1016.0
20260503213013 65 1 0.0 2.6 0.00 0.00 0.00 27 1015.9
20260503212511 65 317 0.0 0.0 0.00 0.00 0.00 28 1016.0
20260503212008 64 41 0.0 2.6 0.00 0.00 0.00 27 1015.8
20260503211505 65 285 1.7 7.8 0.00 0.00 0.00 28 1016.1
20260503211000 65 233 4.3 5.2 0.00 0.00 0.00 27 1016.0
20260503210457 65 23 0.0 3.5 0.00 0.00 0.00 29 1016.0
20260503205951 65 222 3.5 6.1 0.00 0.00 0.00 28 1016.0
20260503205448 65 250 3.5 6.1 0.00 0.00 0.00 27 1015.9
20260503204944 65 191 2.6 5.2 0.00 0.00 0.00 27 1016.0
20260503204442 64 354 2.6 5.2 0.00 0.00 0.00 27 1016.0
20260503203938 64 306 1.7 7.8 0.00 0.00 0.00 27 1016.0
20260503203436 65 313 1.7 5.2 0.00 0.00 0.00 26 1015.8
20260503202933 64 53 0.0 6.1 0.00 0.00 0.00 29 1016.3
20260503202432 65 167 4.3 8.7 0.00 0.00 0.00 27 1016.2
20260503201930 64 273 1.7 8.7 0.00 0.00 0.00 27 1016.2
20260503201427 64 308 1.7 6.1 0.00 0.00 0.00 28 1016.2
20260503200924 64 10 3.5 6.1 0.00 0.00 0.00 28 1016.2
20260503200420 65 269 6.1 8.7 0.00 0.00 0.00 27 1016.6
20260503195917 64 21 0.0 0.9 0.00 0.00 0.00 31 1016.4
20260503195414 64 269 2.6 3.5 0.00 0.00 0.00 29 1016.5
20260503194910 64 300 0.0 3.5 0.00 0.00 0.00 27 1016.9
20260503194407 63 37 1.7 6.1 0.00 0.00 0.00 27 1016.7
20260503193903 64 5 0.0 2.6 0.00 0.00 0.00 29 1016.8
20260503193359 64 240 0.0 1.7 0.00 0.00 0.00 27 1016.7
20260503192854 64 26 0.0 5.2 0.00 0.00 0.00 29 1016.8
20260503192350 64 323 4.3 6.1 0.00 0.00 0.00 27 1016.7
20260503191847 63 46 0.9 3.5 0.00 0.00 0.00 27 1017.0
20260503191344 64 268 3.5 6.1 0.00 0.00 0.00 27 1017.2
20260503190841 64 252 0.0 5.2 0.00 0.00 0.00 32 1017.1
20260503190338 63 352 0.0 0.0 0.00 0.00 0.00 30 1017.1
20260503185835 63 231 5.2 7.8 0.00 0.00 0.00 30 1017.2
20260503185332 64 16 0.9 1.7 0.00 0.00 0.00 29 1017.3
20260503184831 62 25 3.5 6.1 0.00 0.00 0.00 29 1017.1
20260503184327 62 293 0.9 5.2 0.00 0.00 0.00 31 1017.5
20260503183823 62 117 0.9 6.1 0.00 0.00 0.00 29 1017.5
20260503183321 61 80 1.7 5.2 0.00 0.00 0.00 29 1017.4
20260503182818 62 66 4.3 7.8 0.00 0.00 0.00 28 1017.6
20260503182317 62 212 0.9 2.6 0.00 0.00 0.00 28 1017.4
20260503181814 63 249 3.5 5.2 0.00 0.00 0.00 28 1017.6
20260503181311 62 354 0.9 6.1 0.00 0.00 0.00 27 1017.6
20260503180807 62 315 1.7 3.5 0.00 0.00 0.00 31 1017.6
20260503180305 61 8 2.6 7.8 0.00 0.00 0.00 30 1017.7
20260503175801 61 258 1.7 7.0 0.00 0.00 0.00 30 1017.9
20260503175300 61 252 0.0 9.6 0.00 0.00 0.00 32 1017.9
20260503174755 60 281 0.9 1.7 0.00 0.00 0.00 33 1017.9
20260503174253 60 51 1.7 6.1 0.00 0.00 0.00 33 1017.9
20260503173748 61 31 1.7 5.2 0.00 0.00 0.00 31 1018.1
20260503173244 60 283 3.5 7.0 0.00 0.00 0.00 33 1018.2
20260503172741 59 289 1.7 6.1 0.00 0.00 0.00 32 1018.0
20260503172238 60 271 3.5 3.5 0.00 0.00 0.00 32 1018.2
20260503171735 59 323 0.9 1.7 0.00 0.00 0.00 33 1018.2
20260503171232 59 295 2.6 6.1 0.00 0.00 0.00 33 1018.2
20260503170729 59 315 2.6 5.2 0.00 0.00 0.00 35 1018.2
20260503170226 58 275 2.6 7.0 0.00 0.00 0.00 35 1018.5
20260503160148 57 66 0.0 5.2 0.00 0.00 0.00 41 1019.0
20260503150618 55 249 1.7 3.5 0.00 0.00 0.00 41 1019.4
20260503150114 55 233 1.7 7.0 0.00 0.00 0.00 41 1019.5
20260503131007 50 333 1.7 3.5 0.00 0.00 0.00 51 1019.9
20260503130504 50 339 2.6 3.5 0.00 0.00 0.00 50 1019.8
20260503110355 36 267 0.0 0.0 0.00 0.00 0.00 84 1018.9
20260503090246 40 267 0.0 1.7 0.00 0.00 0.00 67 1017.6
20260503081208 40 248 0.0 0.0 0.00 0.00 0.00 75 1017.5
20260503080704 41 248 0.0 0.0 0.00 0.00 0.00 77 1017.4
20260503080201 41 248 0.0 0.0 0.00 0.00 0.00 75 1017.5
20260503072638 39 326 0.0 0.0 0.00 0.00 0.00 78 1017.1
20260503072135 39 326 0.0 0.0 0.00 0.00 0.00 81 1017.2